Location: Windsor
(41.5351°N, 80.9343°W)
Time: 01:11:33
(UTC+00:00)

Daily predictions for brighter satellites

Satellite Brightness Start Highest point End
(mag) Time Altitude Azimuth Time Altitude Azimuth Time Altitude Azimuth
Cosmos 1515 Rocket 3.7 01:25:11 10° S 01:29:22 52° E 01:33:35 10° NNE
Cosmos 1707 3.3 01:27:37 10° SSE 01:30:52 33° E 01:34:07 10° NNE
Cosmos 1633 Rocket 3.3 01:27:55 10° N 01:32:18 76° W 01:36:38 10° S
PSLV R/B 3.5 01:30:06 10° SSE 01:33:39 89° E 01:37:11 10° NNW
SL-24 R/B 4.2 01:28:59 10° SSE 01:33:52 75° ENE 01:38:09 10° N
Cosmos 676 Rocket 4.4 01:29:27 10° S 01:34:28 44° ESE 01:39:30 10° NNE
CARTOSAT-1 4.0 01:32:13 10° S 01:36:26 65° W 01:40:41 10° NNW
CZ-4C R/B 3.9 01:33:05 10° NNE 01:37:00 40° E 01:40:52 10° S
DELTA 2 DEB (DPAF) 4.2 01:32:56 10° N 01:37:10 81° WNW 01:41:22 10° SSW
Cosmos 1190 Rocket 4.0 01:32:31 10° SSW 01:37:48 81° ESE 01:43:08 10° NNE
Cosmos 1697 Rocket 4.2 01:34:13 10° NW 01:39:10 33° WSW 01:44:06 10° SSW
SPOT 5 3.3 01:35:45 10° SE 01:39:43 38° ENE 01:43:47 10° N
Cosmos 1553 Rocket 4.2 01:35:09 10° N 01:41:13 55° E 01:47:21 10° SSE
CSL-04 Rocket 4.2 01:40:29 10° S 01:45:42 60° W 01:50:59 10° NNW
Cosmos 1470 Rocket 3.6 01:42:18 10° N 01:46:41 86° W 01:50:59 10° S
Okean O Rocket 2.1 01:42:41 10° S 01:47:01 61° WSW 01:51:22 10° NNW
Tiangong -1.9 01:44:38 10° W 01:47:44 54° SSW 01:50:36 12° ESE
SL-4 R/B 4.3 01:46:39 10° WNW 01:49:43 23° NNW 01:52:56 10° NE
Cosmos 1766 3.9 01:50:34 10° NNW 01:54:14 53° W 01:57:52 10° S
ERS-1 Rocket 3.7 01:50:48 10° SE 01:55:19 38° ENE 01:59:57 10° N
COSMOS 2406 3.8 01:51:03 10° SW 01:56:45 63° WNW 02:02:28 10° NNE
Cosmos 1400 Rocket 3.8 01:53:37 11° SSE 01:56:46 27° E 02:00:03 10° NE
Cosmos 1980 Rocket 2.9 01:51:43 10° NNW 01:57:13 52° WSW 02:02:40 10° S
Cosmos 1674 3.1 01:55:05 10° SSW 01:58:30 57° W 02:01:54 10° N
Cosmos 2322 Rocket 3.6 01:53:46 10° N 01:58:30 26° NE 02:03:10 10° ESE
Cosmos 1763 Rocket 3.6 01:54:29 10° NNW 01:59:45 78° WSW 02:04:53 10° SSE
USA 234 3.2 01:57:59 10° NE 02:04:31 73° SE 02:11:03 10° SW
ATLAS CENTAUR R/B 2.1 02:01:47 10° SSE 02:04:35 23° ESE 02:07:26 10° ENE
Spot 2 Rocket 4.3 02:02:19 13° SE 02:06:19 36° ENE 02:10:57 10° N
Cosmos 1300 4.5 02:05:21 10° NNE 02:07:39 16° ENE 02:09:14 13° ESE
Cosmos 1441 Rocket 3.2 02:04:39 10° N 02:08:14 58° ENE 02:11:04 15° SSE
Cosmos 2278 3.9 02:04:52 10° NNW 02:10:33 63° ENE 02:15:10 16° SE
Cosmos 1933 Rocket 3.6 02:06:26 10° N 02:10:53 88° ENE 02:15:12 11° S
Meteor 2-10 Rocket 4.5 02:06:35 10° N 02:11:39 35° ENE 02:15:21 16° SE
Meteor 1-13 Rocket 4.3 02:06:28 10° S 02:12:14 73° E 02:17:55 10° NNE
Resurs 01 Rocket 3.8 02:12:41 10° SSW 02:16:11 23° W 02:19:41 10° NW
Cosmos 1908 3.0 02:12:51 10° N 02:16:29 82° E 02:19:19 16° S
Terra 2.1 02:16:11 16° SE 02:19:44 53° ENE 02:24:19 10° N
Cosmos 2219 Rocket 4.1 02:20:06 10° N 02:23:56 18° NE 02:27:45 10° E
Cosmos 1470 3.5 02:22:26 10° NNW 02:26:00 47° W 02:29:33 10° SSW
Cosmos 2237 4.3 02:20:16 10° NNW 02:26:01 74° ENE 02:30:11 19° SSE
ARGOS Delta rocket 3.9 02:23:05 12° S 02:27:16 70° W 02:31:40 10° NNW
Cosmos 468 Rocket 4.3 02:25:37 10° NNW 02:30:46 62° WSW 02:35:02 15° S
Ariane Rocket 3.2 02:27:25 19° SE 02:30:56 57° ENE 02:35:57 10° N
SL-27 R/B 2.5 02:38:02 34° ESE 02:38:03 34° ESE 02:40:37 10° NE
SL-14 R/B 3.4 02:37:34 25° SSE 02:39:27 52° E 02:43:08 10° NNE
Cosmos 2315 Rocket 4.2 02:34:13 10° N 02:40:31 58° E 02:44:42 22° SSE
Cosmos 1707 Rocket 3.9 02:38:10 24° SSE 02:40:31 46° E 02:44:47 10° NNE
SJ 16-02 2.3 02:40:03 25° SE 02:41:12 28° E 02:44:54 10° NE
Cosmos 1850 Rocket 3.9 02:38:50 10° S 02:44:03 71° ESE 02:49:14 10° NNE
ATLAS 2AS CENTAUR R/B 3.3 02:38:49 10° NNW 02:45:21 46° NE 02:50:04 18° ESE
Landsat 4 3.4 02:44:04 32° SSE 02:45:28 69° ENE 02:48:53 10° N
Meteor 1-4 Rocket 3.8 02:49:24 20° ENE 02:49:24 20° ENE 02:51:12 10° NE
Cosmos 2360 Rocket 2.7 02:43:34 10° NNW 02:49:03 48° ENE 02:52:15 24° SE
Cosmos 1346 Rocket 3.2 02:46:17 10° N 02:49:59 44° ENE 02:51:15 32° SE
Meteor 1-23 Rocket 4.2 02:47:07 11° S 02:52:30 87° W 02:58:15 10° N
RESURS DK-1 2.3 02:49:52 10° NNW 02:53:57 75° ENE 02:55:35 35° SE
SPOT 3 Rocket 3.5 02:51:36 24° SSE 02:54:44 87° ENE 02:59:56 10° NNW
Meteor 1-15 Rocket 4.4 02:51:42 10° NNW 02:57:14 72° W 03:01:06 20° S
SL-16 R/B 2.3 02:54:17 10° NNW 02:59:56 69° WSW 03:03:14 25° S
Cosmos 968 Rocket 3.4 02:57:17 20° S 03:00:51 69° ESE 03:06:01 10° NNE
Cosmos 2333 Rocket 2.5 02:56:30 10° NNW 03:02:10 56° ENE 03:05:07 28° SE
MOS 1 Rocket 3.7 02:59:26 23° S 03:02:54 74° WSW 03:08:15 10° NNW
USA 281 4.4 02:58:49 15° ESE 03:03:12 31° NE 03:08:48 10° N
Cosmos 1741 Rocket 4.1 02:58:46 10° SSW 03:04:02 81° WNW 03:09:22 10° NNE
Cosmos 1733 Rocket 3.1 02:59:42 10° N 03:04:06 69° E 03:05:48 36° SSE
SeaSat 1 2.9 03:02:21 25° S 03:05:05 53° WSW 03:09:54 10° NW
Cosmos 1758 3.3 03:04:57 10° N 03:08:52 77° W 03:10:17 38° S
Cosmos 1455 3.7 03:07:35 10° NNE 03:10:14 20° ENE 03:10:21 20° ENE
Atlas Centaur 2 3.7 03:04:17 10° WSW 03:11:28 34° SSW 03:14:19 27° SSE
Okean 1-7 3.6 03:11:24 36° ESE 03:12:13 40° E 03:16:16 10° NNE
Cosmos 1833 4.1 03:08:31 17° SSW 03:12:59 78° ESE 03:18:37 10° NNE
Cosmos 1814 Rocket 4.5 03:08:01 10° N 03:13:11 51° ENE 03:15:23 31° SE
GP-B 4.4 03:12:00 10° NNE 03:15:36 24° E 03:16:05 23° E
Cosmos 2228 Rocket 3.8 03:18:36 19° SSW 03:21:39 54° W 03:26:09 10° N
Cosmos 1241 Rocket 4.3 03:18:42 15° SSW 03:23:47 74° ESE 03:30:01 10° NE
Tiangong 0.5 03:22:15 10° WSW 03:22:45 12° WSW 03:22:45 12° WSW
Spot 1 4.5 03:21:04 10° N 03:25:37 71° WNW 03:28:28 24° SSW
Meteor 1-16 Rocket 4.3 03:19:52 10° N 03:25:48 71° E 03:28:18 36° SSE
Cosmos 1356 Rocket 4.4 03:25:56 19° SW 03:28:33 44° WNW 03:32:36 10° N
Cosmos 2333 4.2 03:26:12 10° NNW 03:32:00 75° ENE 03:34:15 39° SE
MetOp-A 4.0 03:30:40 38° S 03:32:42 81° WSW 03:38:00 10° NNW
Okean 2 3.2 03:36:15 64° SSE 03:36:44 75° E 03:40:45 10° NNE
Meteor 2-20 Rocket 4.4 03:32:22 10° N 03:38:39 81° E 03:41:04 39° SSE
ATLAS CENTAUR R/B 3.3 03:39:12 10° WSW 03:42:07 25° NW 03:45:08 10° N
Cosmos 1300 4.1 03:39:20 10° NNW 03:42:22 27° W 03:43:15 24° WSW
Cosmos 2322 Rocket 2.8 03:37:20 10° NW 03:42:46 49° WSW 03:44:58 32° SSW
Cosmos 2297 Rocket 3.8 03:47:54 18° E 03:47:54 18° E 03:51:16 10° ENE
Aureole 3 4.4 03:48:02 30° SW 03:49:28 43° WNW 03:53:52 10° N
PSLV R/B 4.3 03:46:27 10° NNE 03:50:01 46° E 03:50:01 46° E
Cosmos 1315 Rocket 2.9 03:49:43 58° SW 03:50:20 71° W 03:54:20 10° N
Cosmos 1953 2.0 03:50:46 10° N 03:54:37 88° E 03:54:38 88° ESE
Cosmos 1703 Rocket 3.4 03:55:52 66° S 03:56:28 82° E 04:00:57 10° N
Terra 4.1 03:54:54 10° SW 03:57:37 16° W 04:00:27 10° NW
Cosmos 1486 Rocket 4.5 04:06:10 41° ESE 04:06:17 41° ESE 04:11:08 10° NE
COSMOS 2428 3.2 04:01:52 10° NNW 04:07:24 50° ENE 04:09:13 37° ESE
Cosmos 2219 Rocket 2.2 04:02:50 10° NNW 04:08:32 77° WSW 04:09:56 52° S
CZ-2C R/B 3.7 04:04:50 10° N 04:09:14 74° WNW 04:10:01 58° SW
Cosmos 2242 Rocket 4.2 04:10:52 42° E 04:10:52 42° E 04:15:05 10° NNE
Cosmos 371 Rocket 4.1 04:12:01 36° E 04:12:01 36° E 04:16:01 10° NE
BlueWalker 3 2.3 04:15:31 57° NNE 04:15:31 57° NNE 04:18:38 10° NE
SJ 16-02 3.3 04:16:45 14° WSW 04:19:29 25° WNW 04:23:04 10° N
H-2A R/B 2.5 04:22:54 68° E 04:22:58 68° ENE 04:27:15 10° N
Cosmos 1709 Rocket 4.1 04:23:45 48° SSE 04:25:22 65° E 04:31:40 10° NNE
COSMOS 2455 2.8 04:24:43 54° SSE 04:25:47 64° ESE 04:31:45 10° NE
CZ-4C R/B 2.1 04:28:06 50° E 04:28:06 50° E 04:32:36 10° NE
DNEPR-1 R/B 4.3 04:24:53 10° NW 04:31:05 58° WSW 04:31:50 53° SSW
ARIANE 5 R/B 2.9 04:31:12 51° WSW 04:31:18 51° W 04:35:32 10° NNW
Spot 4 3.7 04:31:54 68° ESE 04:32:21 75° ENE 04:37:09 10° N
Cosmos 2360 Rocket 3.6 04:28:13 10° NW 04:32:41 24° WSW 04:34:00 22° WSW
ATLAS 2AS CENTAUR R/B 3.3 04:30:00 10° NW 04:36:06 37° WSW 04:37:29 34° SW
Cosmos 1703 4.1 04:40:36 42° NE 04:40:36 42° NE 04:43:18 10° NNE
Cosmos 1570 Rocket 4.0 04:35:06 10° NNW 04:40:25 68° WSW 04:41:05 61° SSW
Cosmos 1455 4.1 04:41:52 10° NW 04:44:05 20° WNW 04:44:05 20° WNW
Cosmos 2333 Rocket 3.8 04:41:47 10° NW 04:45:58 21° W 04:47:07 20° WSW
USA 281 3.5 04:45:41 44° SSW 04:47:21 55° WSW 04:53:48 10° NNW
PSLV R/B 4.2 04:46:39 10° NNE 04:50:04 42° ENE 04:50:04 42° ENE
CZ-2C R/B 3.7 04:50:23 46° SW 04:51:43 64° WNW 05:08:29 10° N
Cosmos 2098 Rocket 4.2 04:45:41 10° N 04:52:15 62° E 04:53:52 47° SE
GP-B 4.5 04:48:57 10° NNW 04:52:44 29° W 04:53:24 27° W
Cosmos 158 Rocket 3.8 04:47:32 10° NNW 04:52:49 75° WSW 04:53:14 70° SSW
Cosmos 1782 Rocket 4.4 04:54:16 10° NNW 04:58:10 40° W 04:58:10 40° W
SL-16 R/B 4.4 04:56:16 10° N 05:00:10 18° NE 05:04:03 10° E
Cosmos 304 Rocket 3.6 05:01:27 85° WSW 05:01:32 86° WNW 05:06:19 10° NNE
Cosmos 332 Rocket 4.5 05:05:28 42° E 05:05:28 42° E 05:09:45 10° NNE
Cosmos 2237 Rocket 2.5 05:02:23 10° NNW 05:08:00 60° ENE 05:09:20 47° ESE
SL-4 R/B 3.2 05:05:09 10° NW 05:09:03 41° NNE 05:10:26 31° ENE
Meteor 1-24 Rocket 3.7 05:08:46 61° SSW 05:09:49 82° W 05:15:32 10° N
Cosmos 2322 4.3 05:04:48 10° NW 05:10:06 41° WSW 05:10:29 41° WSW
Cosmos 2227 Rocket 2.6 05:10:41 47° ESE 05:10:54 47° ESE 05:16:19 10° NE
Cosmos 773 Rocket 3.8 05:05:51 10° NNW 05:11:01 84° ENE 05:11:26 75° SE
H-2A R/B 2.5 05:10:50 10° NNE 05:14:25 51° ENE 05:14:25 51° ENE
Cosmos 2084 Rocket 3.9 05:18:12 56° NE 05:18:12 56° NE 05:21:33 10° NE
Cosmos 1980 3.6 05:15:26 10° NNW 05:21:07 81° ENE 05:22:05 63° SE
Cosmos 2151 Rocket 3.7 05:16:55 10° N 05:21:05 66° ENE 05:21:05 66° ENE
Cosmos 1503 Rocket 4.1 05:20:32 58° WSW 05:21:22 68° WNW 05:26:41 10° NNE
Cosmos 1825 3.5 05:23:12 32° NE 05:23:12 32° NE 05:25:17 10° NNE
Cosmos 1777 Rocket 3.9 05:21:43 69° SW 05:22:18 80° WNW 05:27:38 10° NNE
ALOS 2 3.3 05:23:09 43° W 05:23:09 43° W 05:26:58 10° NNW
GEOS 3 Rocket 3.5 05:20:00 10° NE 05:25:07 65° ESE 05:25:12 65° SE
Okean 2 Rocket 3.2 05:23:36 10° N 05:27:55 72° ENE 05:27:55 72° ENE
Cosmos 2181 Rocket 3.9 05:23:56 10° N 05:30:08 85° W 05:31:22 60° S
BREEZE-M DEB (TANK) 4.3 05:22:38 10° WNW 05:30:26 38° N 05:33:21 10° ENE
Cosmos 2297 Rocket 2.4 05:29:40 48° WSW 05:30:59 62° WNW 05:36:37 10° NNE
Cosmos 1674 Rocket 3.6 05:32:54 76° N 05:32:54 76° N 05:36:57 10° N
Cosmos 2219 3.9 05:33:16 38° ESE 05:33:34 39° ESE 05:38:44 10° NE
Cosmos 1378 Rocket 3.7 05:34:08 67° NW 05:34:08 67° NW 05:38:13 10° N
CENTAUR R/B 2.3 05:33:38 56° SE 05:34:05 58° ESE 05:40:34 10° NE
CZ-3 Stage 3 4.4 05:17:47 10° W 05:35:33 30° SW 05:35:53 30° SW
Cosmos 2074 Rocket 3.9 05:38:32 59° S 05:39:50 84° E 05:46:04 10° N
Cosmos 1025 Rocket 3.7 05:40:57 44° E 05:40:57 44° E 05:44:49 10° NNE
Cosmos 2221 Rocket 3.6 05:43:28 72° WNW 05:43:28 72° WNW 05:47:45 10° N
COSMOS 2428 4.1 05:46:51 10° NW 05:51:11 24° W 05:51:11 24° W
Sich 1 Rocket 3.9 05:48:00 10° NNW 05:51:56 57° WNW 05:51:56 57° WNW
Cosmos 405 Rocket 4.3 05:52:55 10° NNW 05:55:13 27° WNW 05:55:13 27° WNW
Helios 1A Rocket 4.4 05:58:05 25° E 05:58:34 26° ENE 06:01:47 10° NNE
Cosmos 1898 Rocket 4.2 06:01:58 39° ESE 06:02:27 40° ESE 06:07:15 10° NE
Resurs 1-4 Rocket 4.3 06:01:34 10° ENE 06:04:22 14° E 06:06:19 12° ESE
Cosmos 2263 Rocket 2.5 06:03:48 46° SE 06:04:30 49° ESE 06:09:52 10° NE
SL-12 R/B(2) 4.2 06:09:01 38° SW 06:12:38 85° NW 06:22:14 10° NE
CZ-4C R/B 4.0 06:13:09 13° W 06:16:23 23° NW 06:20:53 10° NNE
Nadezhda 3 Rocket 3.9 06:12:23 10° N 06:18:40 77° W 06:20:16 52° SSW
NOSS 3-2 (A) 2.9 06:18:58 64° S 06:19:45 79° ESE 06:25:41 10° NE
NOSS 3-2 (C) 3.8 06:25:20 36° SE 06:25:59 37° ESE 06:31:16 10° NE
Okean 1 Rocket 3.9 06:24:18 10° NNW 06:27:57 37° W 06:27:57 37° W
Nimbus 7 Rocket 4.5 06:24:31 10° N 06:30:35 74° WNW 06:32:23 47° SW
In-Cosmos 22 Rocket 4.2 06:35:13 51° S 06:36:46 86° E 06:42:37 10° N
Cosmos 292 Rocket 3.7 06:38:10 61° WSW 06:38:48 71° WNW 06:43:36 10° NNE
Cosmos 2228 4.5 06:39:42 10° NNE 06:43:35 31° ENE 06:45:26 22° ESE
SL-16 R/B 2.1 06:39:13 10° NNW 06:44:55 76° WSW 06:46:35 47° S
SL-4 R/B 4.0 06:43:53 10° WNW 06:45:06 18° WNW 06:45:06 18° WNW
BREEZE-M DEB (TANK) 3.7 06:49:11 21° E 06:49:11 21° E 06:50:46 10° ESE
H-2A R/B 4.3 06:48:08 10° NNW 06:50:12 13° WNW 06:51:12 12° WNW
Cosmos 1975 Rocket 3.1 06:49:56 58° WSW 06:50:16 60° W 06:54:37 10° N
Cosmos 2237 Rocket 3.8 06:47:39 10° WNW 06:51:07 19° W 06:51:07 19° W
Cosmos 2082 3.7 06:51:06 46° SW 06:52:46 72° WNW 06:58:24 10° NNE
Cosmos 2227 Rocket 3.7 06:52:28 19° W 06:55:09 27° NW 06:59:56 10° N
IDEFIX/ARIANE 42P 2.9 06:50:30 10° NNE 06:55:40 57° E 06:57:28 37° SSE
H-2A R/B 3.9 06:55:24 10° NNE 06:59:15 46° E 06:59:56 42° SE
SL-8 Rocket 3.9 06:57:09 42° SSW 06:59:26 83° W 07:05:40 10° N
CZ-2C R/B 3.5 06:55:47 17° SE 06:59:32 47° ENE 07:04:39 10° N
Cosmos 1943 4.1 06:54:13 10° NNW 06:59:37 46° ENE 07:04:58 10° SE
CZ-2C R/B 4.1 06:56:27 10° NNE 07:01:27 37° E 07:03:52 24° SE
CZ-2D R/B 2.7 07:00:10 10° NNE 07:05:20 48° E 07:07:38 29° SSE
Cosmos 1455 Rocket 3.8 07:01:30 10° NNW 07:05:35 36° W 07:05:42 36° W
COBE Rocket 3.9 07:01:02 10° N 07:06:13 83° WNW 07:07:50 45° SSW
Meteor 1-11 4.3 07:04:41 42° SW 07:06:38 68° WNW 07:12:27 10° N
Cosmos 858 Rocket 4.4 07:12:16 44° SSW 07:13:59 80° WNW 07:19:14 10° NNE
Cosmos 2219 4.4 07:15:09 22° W 07:17:44 31° WNW 07:22:43 10° N
Cosmos 1536 Rocket 3.7 07:18:23 41° SSE 07:19:50 72° E 07:24:16 10° NNE
Cosmos 1606 2.6 07:16:24 10° NNW 07:19:53 56° W 07:19:53 56° W
Cosmos 1727 Rocket 4.4 07:14:10 10° N 07:20:27 62° E 07:25:41 15° SSE
NPP 3.6 07:17:02 10° NNE 07:22:27 86° WNW 07:24:45 36° SSW
Cosmos 1867 4.0 07:20:35 32° S 07:22:45 51° ESE 07:28:03 10° NE
CENTAUR R/B 3.9 07:20:44 13° W 07:25:11 31° NW 07:31:22 10° NNE
Cosmos 2227 4.2 07:24:37 35° SSW 07:27:09 83° ESE 07:32:57 10° NNE
Cosmos 1900 4.4 07:25:54 39° SW 07:27:51 82° WNW 07:32:59 10° NNE
Iridium 921 4.5 07:29:09 56° WSW 07:29:21 57° W 07:32:45 10° N
ADEOS II 2.5 07:26:07 10° NNE 07:31:16 56° E 07:34:19 24° S
USA 238 DEB 3.6 07:28:49 31° SSW 07:31:52 66° ESE 07:38:25 10° NE
USA 238 3.6 07:28:52 31° SSW 07:31:55 65° ESE 07:38:28 10° NE
Helios 1A Rocket 4.4 07:33:25 20° W 07:33:25 20° W 07:35:47 10° NW
Cosmos 923 Rocket 4.3 07:31:01 10° NNW 07:36:02 47° WSW 07:37:48 33° SSW
Cosmos 1844 4.4 07:33:31 23° S 07:36:50 49° ESE 07:42:24 10° NE
Cosmos 1461 3.9 07:36:27 26° W 07:37:47 34° NW 07:41:22 10° NNE
Cosmos 1937 Rocket 4.4 07:38:33 25° WSW 07:40:49 37° WNW 07:45:42 10° N
MOZ.5/SAFIR/RUBIN 5/SL-8 4.5 07:39:56 32° WSW 07:40:49 34° W 07:45:03 10° NNW
Meteor 2-13 Rocket 4.4 07:35:35 10° N 07:41:42 90° WNW 07:46:27 18° S
Resurs 1-4 Rocket 2.1 07:39:23 10° N 07:44:39 70° WNW 07:47:22 29° SSW
Cosmos 2263 Rocket 3.7 07:45:28 16° W 07:48:39 26° NW 07:53:16 10° N
AQUA 3.8 07:52:15 10° NNE 07:56:59 78° ESE 08:00:01 22° S
Cosmos 1821 Rocket 4.2 08:00:01 24° SW 08:03:38 53° WNW 08:09:38 10° N
SL-24 DEB 4.2 07:59:19 10° N 08:03:53 88° E 08:07:09 19° S
Meteor 1-28 Rocket 3.0 08:01:25 18° SSE 08:03:59 82° ENE 08:07:32 10° N
Meteor 1-27 4.4 07:59:52 10° NNW 08:05:34 56° W 08:09:44 18° SSW
Cosmos 1844 Rocket 2.6 08:04:20 23° SSW 08:07:55 81° WNW 08:13:32 10° NNE
Delta 2 Rocket 3.9 08:07:47 28° SW 08:08:50 33° S 08:12:40 10° ESE
Cosmos 1892 Rocket 3.8 08:05:35 17° S 08:08:55 68° E 08:13:19 10° NNE
ALOS 2.3 08:05:16 10° NNE 08:09:53 75° ESE 08:13:25 17° S
Cosmos 1607 4.4 08:07:21 10° NNW 08:13:46 68° NE 08:19:59 10° SE
Cosmos 1437 Rocket 3.5 08:12:41 24° WSW 08:14:15 35° WNW 08:17:46 10° N
NOSS 3-2 (C) 4.3 08:12:44 14° WSW 08:16:46 35° NW 08:22:25 10° NNE
Alouette 2 Rocket 3.8 08:14:22 14° S 08:18:40 73° E 08:22:27 10° NNE
USA 267 3.3 08:12:11 10° NE 08:18:46 83° SE 08:24:01 17° SW
Cosmos 2228 4.5 08:17:26 10° NW 08:20:38 21° W 08:21:58 18° WSW
Cosmos 1818 4.4 08:16:24 10° NW 08:21:06 30° WSW 08:24:48 14° SSW
SAR-Lupe-1 4.0 08:24:41 10° NNE 08:28:17 87° ESE 08:31:08 15° SSW
Cosmos 1603 3.9 08:28:13 10° NW 08:33:44 50° WSW 08:39:13 10° S
IDEFIX/ARIANE 42P 4.3 08:31:04 10° NNW 08:34:43 19° WNW 08:38:13 10° WSW
SL-16 R/B 2.6 08:29:51 10° S 08:35:59 59° WSW 08:42:09 10° NNW
CZ-2C R/B 3.9 08:37:16 15° SW 08:40:01 22° W 08:44:06 10° NW
CZ-2C R/B 4.3 08:36:32 10° N 08:41:03 28° WNW 08:44:53 12° WSW
Cosmos 2123 Rocket 4.0 08:35:14 10° NNW 08:41:21 67° W 08:47:29 10° S
Cosmos 1934 Rocket 4.1 08:36:19 11° SSW 08:42:20 64° W 08:48:41 10° N
SEDSat Delta rocket 4.3 08:41:06 15° SSW 08:42:55 20° S 08:45:53 10° SE
Cosmos 1943 4.2 08:38:49 10° NW 08:43:19 25° WSW 08:47:43 10° SSW
CZ-2D R/B 3.6 08:40:54 10° NNW 08:44:58 23° WNW 08:48:55 10° WSW
Envisat 3.0 08:47:20 10° NNE 08:52:26 87° WNW 08:57:30 10° SSW
USA 234 4.2 08:46:31 10° ESE 08:52:49 52° NNE 08:59:07 10° NW
Cosmos 921 Rocket 3.9 08:50:13 10° NW 08:53:49 28° W 08:57:23 10° SSW
Cosmos 1048 Rocket 4.3 08:49:57 10° NNW 08:54:56 47° WSW 08:59:57 10° S
ASTEX 1 4.4 08:52:22 11° SSW 08:56:22 29° W 09:00:34 10° NNW
Cosmos 1125 Rocket 3.9 08:57:57 10° SW 09:03:04 51° WNW 09:08:14 10° N
CZ-2C R/B 2.4 08:58:41 10° NNE 09:03:16 77° ESE 09:07:50 10° S
Okean 1-7 Rocket 4.5 08:59:56 10° SSE 09:04:17 51° E 09:08:37 10° NNE
Cosmos 1238 Rocket 2.5 09:05:13 10° NNW 09:08:29 49° W 09:11:24 10° S
Cosmos-2242 3.3 09:05:15 10° N 09:09:33 71° E 09:13:49 10° SSE
Lacrosse 5 4.3 09:07:23 10° SSE 09:09:49 14° ESE 09:12:14 10° E
ADEOS II 3.7 09:06:45 10° NNW 09:10:27 20° WNW 09:14:08 10° WSW
Cosmos 1812 3.6 09:08:17 10° NNW 09:11:21 27° W 09:14:25 10° SSW
BlueWalker 3 4.3 09:08:52 10° NW 09:12:04 26° NNE 09:15:16 10° E
Cosmos 2150 Rocket 4.1 09:10:23 10° SSW 09:15:34 72° WNW 09:20:53 10° NNE
Cosmos 1782 2.8 09:12:23 10° N 09:16:16 81° E 09:20:04 10° S
Cosmos 2058 3.8 09:12:54 10° SW 09:16:31 31° WNW 09:20:10 10° NNW
Cosmos 1833 Rocket 3.7 09:15:32 10° NNW 09:21:03 52° ENE 09:26:33 10° SE
